This demonstration page uses our WeatherBlox Daily Observations layout. Learn more.

Left ArrowRight Arrow

Hourly Observations for June 30, 2016

Temp ( °F °C ) Dew Point ( °F °C ) Humidity (%) Winds ( mph kmh ) Pressure ( in mb ) Visibility ( mi km ) Precip ( " mm )
12:52 am 00:52 Clear 72 22.2 66 18.9 82 82 SSE 6 9 30.00 1016 10 16 0.00 0.00
1:52 am 01:52 Mostly Cloudy 73 22.8 67 19.4 81 81 S 8 13 29.99 1016 10 16 0.00 0.00
2:52 am 02:52 Mostly Cloudy 72 22.2 67 19.4 84 84 SSE 10 17 29.98 1015 10 16 0.00 0.00
3:52 am 03:52 Mostly Clear 72 22.2 66 18.9 82 82 S 9 15 29.96 1015 10 16 0.00 0.00
4:52 am 04:52 Mostly Cloudy 71 21.7 65 18.3 81 81 SSE 9 15 29.96 1015 10 16 0.00 0.00
5:52 am 05:52 Partly Cloudy 71 21.7 65 18.3 81 81 S 12 19 29.97 1015 10 16 0.00 0.00
6:52 am 06:52 Mostly Cloudy 71 21.7 66 18.9 84 84 SSE 12 19 29.97 1015 10 16 0.00 0.00
7:52 am 07:52 Mostly Cloudy 73 22.8 66 18.9 79 79 S 10 17 29.98 1015 10 16 0.00 0.00
8:52 am 08:52 Partly Cloudy 76 24.4 67 19.4 74 74 SSW 8 13 30.00 1016 10 16 0.00 0.00
9:29 am 09:29 Cloudy with Nearby Thunderstorms 75 23.9 68 20 79 79 SW 16 26 29.97 1015 10 16 0.00 0.03
9:50 am 09:50 Cloudy 73 23 66 19 78 78 SW 10 17 29.97 1015 10 16 0.00 0.00
9:52 am 09:52 Cloudy 73 22.8 67 19.4 81 81 SW 10 17 29.99 1016 10 16 0.00 0.03
10:49 am 10:49 Mostly Cloudy with Nearby Thunderstorms 75 24 68 20 78 78 SW 8 13 30.00 1016 10 16 0.00 0.03
10:52 am 10:52 Cloudy with Nearby Thunderstorms 76 24.4 68 20 77 77 W 8 13 30.01 1016 10 16 0.00 0.03
11:04 am 11:04 Cloudy with Thunderstorms 75 24 66 19 74 74 WSW 15 24 30.00 1016 10 16 0.00 0.00
11:15 am 11:15 Cloudy with Strong Thunderstorms 70 21.1 65 18.3 84 84 W 8 13 30.00 1016 2 3 0.09 2.29
11:24 am 11:24 Cloudy with Thunderstorms 70 21 66 19 88 88 NNE 16 26 30.03 1017 3 5 0.00 0.00
11:39 am 11:39 Cloudy with Thunderstorms 70 21.1 65 18.3 84 84 NE 5 7 30.03 1017 10 16 0.19 4.83
11:50 am 11:50 Cloudy with Nearby Thunderstorms 70 21 64 18 83 83 ESE 9 15 30.00 1016 10 16 0.00 0.00
11:52 am 11:52 Cloudy with Nearby Thunderstorms 70 21 66 19 88 88 ESE 10 17 30.00 1016 10 16 0.00 0.00
12:15 pm 12:15 Mostly Cloudy 76 24.4 69 20.6 79 79 S 10 17 29.94 1014 10 16 0.00 0.00
12:52 pm 12:52 Mostly Sunny 80 26.7 68 20 67 67 S 14 22 29.97 1015 10 16 0.00 0.00
1:52 pm 13:52 Sunny 83 28.3 69 20.6 63 63 SW 12 19 29.94 1014 10 16 0.00 0.00
2:52 pm 14:52 Sunny 86 30 69 20.6 57 57 WSW 16 26 29.93 1014 10 16 0.00 0.00
3:52 pm 15:52 Sunny 84 28.9 70 21.1 63 63 WSW 12 19 29.92 1013 10 16 0.00 0.00
4:52 pm 16:52 Sunny 85 29.4 70 21.1 61 61 SW 9 15 29.89 1012 10 16 0.00 0.00
5:52 pm 17:52 Sunny 87 30.6 70 21.1 57 57 WSW 12 19 29.89 1012 10 16 0.00 0.00
6:12 pm 18:12 Partly Cloudy with Nearby Thunderstorms 84 29 70 21 62 62 WSW 12 19 29.85 1011 10 16 0.00 0.00
6:20 pm 18:20 Partly Cloudy with Thunderstorms 84 29 70 21 62 62 WSW 10 17 29.83 1010 10 16 0.00 0.00
6:52 pm 18:52 Cloudy with Thunderstorms 74 23.3 63 17.2 69 69 NNE 18 30 29.88 1012 10 16 0.02 0.51
7:52 pm 19:52 Cloudy with Strong Thunderstorms 73 22.8 66 18.9 79 79 W 8 13 29.97 1015 4 6 0.05 1.27
7:56 pm 19:56 Cloudy with Strong Thunderstorms 73 23 66 19 78 78 WSW 14 22 29.94 1014 2 3 0.00 0.00
8:10 pm 20:10 Cloudy with Strong Thunderstorms 70 21 66 19 88 88 SE 12 19 29.91 1013 2 3 0.00 0.00
8:19 pm 20:19 Cloudy with Thunderstorms 70 21.1 67 19.4 90 90 SE 13 20 29.91 1013 10 16 0.41 10.41
8:52 pm 20:52 Mostly Cloudy with Thunderstorms 71 21.7 66 18.9 84 84 SSE 12 19 29.95 1014 10 16 0.41 10.41
8:55 pm 20:55 Cloudy with Nearby Thunderstorms 71 21.7 67 19.4 87 87 SE 16 26 29.94 1014 10 16 0.00 0.00
9:11 pm 21:11 Mostly Cloudy 70 21.1 67 19.4 90 90 SSE 14 22 29.97 1015 10 16 0.00 0.00
9:27 pm 21:27 Mostly Cloudy with Nearby Thunderstorms 70 21.1 67 19.4 90 90 SSE 12 19 29.94 1014 6 10 0.03 0.76
9:52 pm 21:52 Cloudy with Nearby Thunderstorms 70 21.1 67 19.4 90 90 SSE 6 9 29.97 1015 10 16 0.05 1.27
10:22 pm 22:22 Cloudy with Heavy Rain 70 21 66 19 88 88 S 16 26 29.97 1015 3 5 0.00 0.00
10:52 pm 22:52 Mostly Cloudy 69 20.6 66 18.9 90 90 S 9 15 29.96 1015 10 16 0.26 6.60
11:52 pm 23:52 Clear 68 20 65 18.3 90 90 SSW 9 15 29.96 1014 10 16 0.00 0.00

Powered by AerisWeather